Location: Podia
(1.5569°N, 32.3469°E)
Time: 15:53:11
(UTC+00:00)

Cosmos 2346 Rocket - Visible Passes

Search period start: 24 September 2020 00:00
Search period end: 04 October 2020 00:00
Orbit: 936 x 980 km, 82.9° (Epoch: 23 September)

Date Brightness Start Highest point End Pass type
(mag) Time Alt. Az. Time Alt. Az. Time Alt. Az.
24 Sep 6.5 16:24:40 10° NNW 16:30:10 33° W 16:35:42 10° SSW visible
25 Sep 7.5 16:46:31 10° NW 16:50:19 17° W 16:54:09 10° SW visible
26 Sep 7.7 02:21:42 10° ESE 02:24:22 13° E 02:27:01 10° ENE visible
27 Sep 6.7 02:39:32 10° SSE 02:44:31 27° E 02:49:29 10° NE visible
28 Sep 5.4 02:58:48 10° S 03:04:40 53° E 03:10:31 10° NNE visible
28 Sep 6.8 16:00:47 10° NNW 16:06:08 30° W 16:11:31 10° SSW visible
29 Sep 7.8 16:22:51 10° WNW 16:26:17 15° W 16:29:43 10° SW visible
30 Sep 7.4 01:57:09 10° SE 02:00:18 15° E 02:03:26 10° ENE visible
01 Oct 6.4 02:15:18 10° SSE 02:20:27 29° E 02:25:35 10° NE visible
02 Oct 5.1 02:34:40 10° S 02:40:36 59° E 02:46:31 10° NNE visible
03 Oct 4.4 02:54:44 10° S 03:00:45 72° W 03:06:46 10° N visible
03 Oct 7.9 15:59:17 10° WNW 16:02:15 14° W 16:05:12 10° WSW visible
